This is the latest recevied weather packets stored in our database for station/object N3MFL. If no packets are shown the sender has not sent any weather packets the latest 10 day(s).
| Time | Temp. | Humidity | Pressure | Rain* | Wind** | Luminosity | Snow |
|---|---|---|---|---|---|---|---|
| 1777711049 | 6.67° C | 82% | 1012.4 hPa | 0 mm | - | 0 W/m² | - |
| 1777710746 | 7.22° C | 81% | 1012.4 hPa | 0 mm | - | 0 W/m² | - |
| 1777710443 | 6.67° C | 84% | 1012.5 hPa | 0 mm | - | 0 W/m² | - |
| 1777710140 | 6.11° C | 87% | 1012.5 hPa | 0 mm | - | 0 W/m² | - |
| 1777709837 | 5.56° C | 89% | 1012.5 hPa | 0 mm | - | 0 W/m² | - |
| 1777709535 | 5° C | 90% | 1012.5 hPa | 0 mm | - | 0 W/m² | - |
| 1777709232 | 5° C | 90% | 1012.5 hPa | 0 mm | - | 0 W/m² | - |
| 1777708929 | 5° C | 90% | 1012.5 hPa | 0 mm | - | 0 W/m² | - |
| 1777708627 | 5° C | 90% | 1012.4 hPa | 0 mm | - | 0 W/m² | - |
| 1777708325 | 5° C | 90% | 1012.5 hPa | 0 mm | - | 0 W/m² | - |
| 1777708022 | 5° C | 90% | 1012.7 hPa | 0 mm | - | 0 W/m² | - |
| 1777707719 | 5° C | 90% | 1012.6 hPa | 0 mm | - | 0 W/m² | - |
| 1777707415 | 5° C | 90% | 1012.5 hPa | 0 mm | - | 0 W/m² | - |
| 1777707111 | 5° C | 90% | 1012.5 hPa | 0 mm | - | 0 W/m² | - |
| 1777706809 | 5° C | 89% | 1012.4 hPa | 0 mm | - | 0 W/m² | - |
| 1777706507 | 5° C | 89% | 1012.2 hPa | 0 mm | - | 0 W/m² | - |
| 1777706204 | 5.56° C | 89% | 1012.4 hPa | 0 mm | - | 0 W/m² | - |
| 1777705902 | 5.56° C | 89% | 1012.5 hPa | 0 mm | - | 0 W/m² | - |
| 1777705600 | 5.56° C | 88% | 1012.6 hPa | 0 mm | - | 0 W/m² | - |
| 1777705298 | 5° C | 87% | 1012.5 hPa | 0 mm | - | 0 W/m² | - |
| 1777704996 | 5.56° C | 86% | 1012.5 hPa | 0 mm | - | 0 W/m² | - |
| 1777704693 | 5.56° C | 86% | 1012.7 hPa | 0 mm | - | 0 W/m² | - |
| 1777704392 | 5.56° C | 86% | 1012.6 hPa | 0 mm | - | 0 W/m² | - |
| 1777704089 | 6.11° C | 86% | 1012.4 hPa | 0 mm | - | 0 W/m² | - |
| 1777703787 | 6.11° C | 86% | 1012.7 hPa | 0 mm | - | 0 W/m² | - |
* Rain latest hour (hover to see other rain measurements)
** Current wind speed in m/s (hover to see current wind gust speed)